Home   Weather   Bowling Green   Past weeks

Flag for USA Past Weather in Bowling Green, Kentucky, USA — Yesterday and Last 2 Weeks

Now
56 °F

Mostly cloudy.


Feels Like: 55 °F
Forecast: 56 / 64 °F
Wind: 5 mph from Southwest

Location: Outlaw Field

Current Time: Jan 20, 2017 at 12:00:54 am

Latest Report: Jan 19, 2017 at 11:17 pm


Visibility: 10 mi

Pressure: 29.68 "Hg

Humidity: 93%

Dew Point: 54 °F

Location of Bowling GreenLocation

Past Weather in Bowling Green — Graph

°F

Bowling Green Temperature Yesterday

Maximum temperature yesterday: 56 °F (at 4:31 pm)
Minimum temperature yesterday: 45 °F (at 5:13 am)
Average temperature yesterday: 51 °F

High & Low Weather Summary for the Past Weeks

 TemperatureHumidityPressure
High71 °F (Jan 12, 12:52 pm)97% (Jan 11, 4:52 am)30.81 "Hg (Jan 11, 4:52 am)
Low7 °F (Jan 8, 5:52 am)29% (Jan 9, 12:52 pm)29.68 "Hg (Jan 19, 10:37 pm)
Average42 °F78%30.24 "Hg
* Reported Jan 4 11:52 pm — Jan 19 11:00 pm, Bowling Green, Weather by CustomWeather, © 2017

Note: Actual official high and low records may vary slightly from our data, if they occured in-between our weather recording intervals... More about our weather records

Advertising

Bowling Green Weather History for the Previous 24 Hours

Scroll right to see more
 ConditionsComfort  
Time TempWeatherWind HumidityBarometerVisibility
11:00 pm
Thu, Jan 19
54 °FFog.3 mph97%29.69 "Hg1 mi
10:37 pm55 °FLight rain. Fog.No wind96%29.68 "Hg1 mi
10:14 pm56 °FLight rain. Fog.No wind93%29.69 "Hg1 mi
10:07 pm55 °FLight rain. Fog.No wind96%29.69 "Hg2 mi
9:52 pm55 °FRain. Fog.No wind96%29.69 "Hg1 mi
9:37 pm55 °FLight rain. Fog.3 mph96%29.70 "Hg1 mi
8:52 pm55 °FLight rain. Fog.No wind93%29.70 "Hg1 mi
8:38 pm55 °FLight rain. Fog.No wind96%29.70 "Hg1 mi
8:01 pm55 °FFog.No wind96%29.71 "Hg2 mi
6:52 pm55 °FLight rain. Fog.6 mph96%29.74 "Hg3 mi
5:52 pm55 °FLight rain. Fog.6 mph93%29.75 "Hg5 mi
4:52 pm55 °FLight rain. Fog.No wind93%29.76 "Hg3 mi
4:31 pm56 °FLight rain. Fog.6 mph90%29.78 "Hg4 mi
4:02 pm55 °FLight rain. Fog.7 mph93%29.77 "Hg5 mi
3:52 pm55 °FLight rain. Fog.7 mph93%29.77 "Hg6 mi
3:29 pm55 °FLight rain. Fog.7 mph93%29.77 "Hg6 mi
2:52 pm54 °FLight rain. Fog.7 mph93%29.79 "Hg5 mi
2:20 pm54 °FLight rain. Fog.8 mph93%29.80 "Hg5 mi
1:52 pm54 °FLight rain. Fog.9 mph93%29.81 "Hg4 mi
1:07 pm54 °FLow clouds.6 mph93%29.83 "Hg7 mi
12:37 pm53 °FLight rain. Fog.5 mph96%29.85 "Hg3 mi
12:17 pm53 °FRain. Fog.7 mph93%29.87 "Hg3 mi
11:52 am53 °FRain. Fog.6 mph93%29.88 "Hg2 mi
11:33 am53 °FHeavy rain. Fog.9 mph93%29.90 "Hg2 mi
10:52 am53 °FOvercast.8 mph89%29.93 "Hg10 mi
9:52 am51 °FMore clouds than sun.8 mph92%29.96 "Hg9 mi
9:25 am51 °FMore clouds than sun.7 mph89%29.97 "Hg8 mi
8:52 am49 °FFog.7 mph93%29.96 "Hg5 mi
8:37 am49 °FFog.7 mph90%29.96 "Hg4 mi
8:03 am48 °FFog.7 mph89%29.97 "Hg3 mi
7:42 am47 °FLight rain. Fog.6 mph93%29.98 "Hg2 mi
7:19 am47 °FFog.5 mph93%29.98 "Hg5 mi
7:05 am47 °FFog.3 mph90%29.98 "Hg5 mi
6:52 am46 °FFog.6 mph93%29.99 "Hg4 mi
6:28 am46 °FLight rain. Fog.6 mph93%29.99 "Hg4 mi
6:19 am46 °FFog.7 mph93%29.99 "Hg4 mi
5:52 am46 °FLight rain. Fog.8 mph89%30.01 "Hg4 mi
5:30 am45 °FFog.8 mph93%30.01 "Hg5 mi
5:13 am45 °FRain. Fog.9 mph90%30.01 "Hg2 mi
5:07 am46 °FLight rain. Fog.7 mph86%30.01 "Hg4 mi
4:52 am46 °FFog.7 mph86%30.02 "Hg6 mi
4:33 am46 °FLight rain. Fog.6 mph86%30.02 "Hg5 mi
4:23 am46 °FLight rain. Fog.9 mph86%30.02 "Hg2 mi
3:52 am47 °FOvercast.7 mph80%30.03 "Hg7 mi
3:27 am46 °FMostly cloudy.7 mph83%30.03 "Hg8 mi
3:01 am46 °FMostly cloudy.9 mph83%30.03 "Hg9 mi
1:52 am46 °FOvercast.6 mph83%30.03 "Hg10 mi
12:52 am46 °FOvercast.6 mph79%30.06 "Hg10 mi
Weather by CustomWeather, © 2017

See weather overviewHow to use our weather pages